Regional Weather Roundup
Issued by NWS

Home | Current Version | Previous Version | Graphics & Text | Print | Product List | Glossary On
Versions: 1 2 3 4 5 6 7 8 9 10 11 12 13 14 15 16 17 18 19 20 21 22 23 24 25 26 27 28 29 30 31 32 33 34 35 36 37 38 39 40 41 42 43 44 45 46 47 48 49 50
950
ASUS43 KLSX 261107
RWRMO

WEATHER SUMMARY FOR MISSOURI
NATIONAL WEATHER SERVICE SPRINGFIELD MO
600 AM CDT THU MAY 26 2016

NOTE: "FAIR" INDICATES FEW OR NO CLOUDS BELOW 12,000 FEET WITH NO
       SIGNIFICANT WEATHER AND/OR OBSTRUCTIONS TO VISIBILITY.
       CURRENT SKY AND/OR WEATHER CONDITIONS ARE NOT AVAILABLE FOR
       CHILLICOTHE AND FARMINGTON.

MOZ001>031-035>038-043-044-053-054-261200-
...NORTHERN AND WESTERN MISSOURI...

CITY           SKY/WX    TMP DP  RH WIND       PRES   REMARKS
KANSAS CTY INT CLOUDY    64  61  90 CALM      29.89R
KANSAS C DTWN  CLOUDY    66  61  84 CALM      29.86F
LEE`S SUMMIT   CLOUDY    65  62  90 VRB7      29.88F
ST JOSEPH      CLOUDY    63  60  90 CALM      29.87S
CHILLICOTHE      N/A     72  57  59 S8        29.88F
KIRKSVILLE     CLOUDY    69  65  86 W6        29.90R

$$
MOZ066>068-077>081-088>096-101>105-261200-
...SOUTHWEST MISSOURI...

CITY           SKY/WX    TMP DP  RH WIND       PRES   REMARKS
SPRINGFIELD    CLOUDY    71  68  90 S9        29.93R
JOPLIN         PTCLDY    74  71  91 S8        29.90R

$$
MOZ032>034-039>042-045>050-055>058-069>072-261200-
...CENTRAL MISSOURI...

CITY           SKY/WX    TMP DP  RH WIND       PRES   REMARKS
COLUMBIA       LGT RAIN  66  61  84 N14       29.95S
JEFFERSON CITY TSTM      66  62  87 N8        29.93F
ROLLA          TSTM      71  68  90 NW28G40   29.96R
SEDALIA        MOCLDY    65  62  90 NW3       29.90F
WHITEMAN AFB   LGT RAIN  63  63 100 W9G23     29.93R
WARRENSBURG    TSTM      64  61  88 CALM      29.94R

$$
MOZ051-052-059>065-261200-
...EAST CENTRAL MISSOURI...

CITY           SKY/WX    TMP DP  RH WIND       PRES   REMARKS
ST LOUIS INTL  CLOUDY    72  67  84 S7        29.92S
SPIRIT OF STL  PTCLDY    70  70 100 CALM      29.90S
ST CHARLES     MOCLDY    69  68  96 E8        29.90S

$$
MOZ072>076-082>087-097>100-106>115-261200-
...SOUTH CENTRAL AND SOUTHEAST MISSOURI...

CITY           SKY/WX    TMP DP  RH WIND       PRES   REMARKS
CAPE GIRARDEAU MOCLDY    67  63  87 SE3       30.00S
FARMINGTON     CLOUDY    68  67  96 S8        29.98R
POPLAR BLUFF   MOCLDY    67  65  93 SE5       29.98S
WEST PLAINS    CLOUDY    73  69  87 S5        29.99R

$$



USA.gov is the U.S. government's official web portal to all federal, state and local government web resources and services.